Flagstaff, AZ

10:55 PM MST on April 24, 2017 (GMT -0700)
Flagstaff Pulliam

Weather History for KFLG - March, 2011

Change the Weather History Date:

Monday, March 21, 2011

  Actual Average Record
Temperature  
Mean Temperature 36 °F 38 °F  
Max Temperature 44 °F 52 °F 70 °F (2004)
Min Temperature 27 °F 24 °F 5 °F (1948)
Degree Days  
Heating Degree Days 29 27  
Month to date heating degree days 525 605  
Since 1 July heating degree days 5058 5444  
Cooling Degree Days 0 0  
Month to date cooling degree days 0 0  
Year to date cooling degree days 0 0  
Moisture  
Dew Point 25 °F    
Average Humidity 59    
Maximum Humidity 100    
Minimum Humidity 18    
Precipitation  
Precipitation 0.75 in 0.06 in 1.02 in (1991)
Month to date precipitation 0.88 1.53  
Year to date precipitation 4.19 5.74  
Snow  
Snow 8.00 in 0.60 in 15.40 in (1991)
Month to date snowfall 8.0 15.4  
Since 1 July snowfall 72.0 88.6  
Snow Depth 8.00 in    
Sea Level Pressure  
Sea Level Pressure 29.80 in    
Wind  
Wind Speed 15 mph (SSW)    
Max Wind Speed 30 mph    
Max Gust Speed 45 mph    
Visibility 2 miles    
Events Fog , Snow    
T = Trace of Precipitation, MM = Missing Value Source: NWS Daily Summary

Daily Weather History Graph

Daily Weather History Graph

Search for Another Location

Airport or City:

Trip Planner

Search our weather history database for the weather conditions in past years. The results will help you decide how hot, cold, wet, or windy it might be!

Date:

Astronomy

Mar. 21, 2011 Rise Set
Actual Time 6:29 AM MST 6:39 PM MST
Civil Twilight 6:03 AM MST 7:04 PM MST
Nautical Twilight 5:34 AM MST 7:33 PM MST
Astronomical Twilight 5:04 AM MST 8:03 PM MST
Moon 9:28 PM MST (3/21) 7:21 AM MST (3/21)
Length of Visible Light 13h 00m
Length of Day
12h 09m
Waning Gibbous, 94% of the Moon is Illuminated
Mar 21
Waning Gibbous
Mar 26
Last Quarter
Apr 3
New
Apr 11
First Quarter
Apr 17
Full

Hourly Weather History & Observations

Time (MST) Temp. Windchill Dew Point Humidity Pressure Visibility Wind Dir Wind Speed Gust Speed Precip Events Conditions
12:57 AM 44.1 °F 37.7 °F 3.0 °F 18% 29.68 in 10.0 mi South 12.7 mph 26.5 mph N/A   Mostly Cloudy
1:57 AM 43.0 °F 34.8 °F 1.9 °F 18% 29.68 in 10.0 mi South 18.4 mph 33.4 mph N/A   Overcast
2:57 AM 42.1 °F 31.9 °F 1.9 °F 19% 29.66 in 10.0 mi South 26.5 mph 41.4 mph N/A   Overcast
3:57 AM 41.0 °F 31.6 °F 6.1 °F 24% 29.65 in 10.0 mi South 20.7 mph 44.9 mph N/A   Overcast
4:57 AM 39.9 °F 31.1 °F 9.0 °F 28% 29.64 in 10.0 mi South 17.3 mph 35.7 mph N/A   Overcast
5:57 AM 39.0 °F 29.3 °F 12.0 °F 33% 29.64 in 10.0 mi SSW 19.6 mph 33.4 mph N/A   Overcast
6:57 AM 37.9 °F 28.2 °F 18.0 °F 45% 29.65 in 10.0 mi SSW 18.4 mph 33.4 mph N/A   Overcast
7:17 AM 35.6 °F 23.4 °F 21.2 °F 56% 29.78 in 2.5 mi SSW 25.3 mph 35.7 mph 0.00 in Snow Light Snow
7:38 AM 33.8 °F 21.0 °F 26.6 °F 75% 29.79 in 0.8 mi South 25.3 mph 41.4 mph 0.00 in Snow Light Snow
7:47 AM 33.8 °F 21.6 °F 26.6 °F 75% 29.78 in 0.8 mi South 23.0 mph 40.3 mph 0.00 in Snow Light Snow
7:57 AM 33.1 °F 21.2 °F 27.0 °F 78% 29.68 in 0.8 mi South 20.7 mph 34.5 mph 0.01 in Snow Light Snow
8:09 AM 30.2 °F 18.1 °F 28.4 °F 93% 29.78 in 0.2 mi South 18.4 mph 31.1 mph 0.01 in Fog , Snow Snow
8:20 AM 30.2 °F 18.1 °F 30.2 °F 100% 29.78 in 0.5 mi SSW 18.4 mph 27.6 mph 0.02 in Fog , Snow Snow
8:47 AM 30.2 °F 17.4 °F 30.2 °F 100% 29.78 in 0.5 mi SSW 20.7 mph 28.8 mph 0.04 in Fog , Snow Snow
8:57 AM 30.9 °F 20.2 °F 30.0 °F 96% 29.69 in 0.5 mi SSW 15.0 mph 29.9 mph 0.05 in Fog , Snow Snow
9:03 AM 30.2 °F 19.3 °F 30.2 °F 100% 29.79 in 0.2 mi SSW 15.0 mph 24.2 mph 0.01 in Fog , Snow Heavy Snow
9:30 AM 30.2 °F 18.9 °F 30.2 °F 100% 29.81 in 0.5 mi SSW 16.1 mph 23.0 mph 0.06 in Fog , Snow Snow
9:55 AM 30.2 °F 17.8 °F 30.2 °F 100% 29.81 in 0.2 mi SSW 19.6 mph 27.6 mph 0.09 in Fog , Snow Snow
9:57 AM 30.9 °F 19.8 °F 30.0 °F 96% 29.71 in 0.2 mi SSW 16.1 mph 27.6 mph 0.09 in Fog , Snow Snow
10:04 AM 30.2 °F 17.4 °F 30.2 °F 100% 29.81 in 0.5 mi SSW 20.7 mph 29.9 mph 0.01 in Fog , Snow Snow
10:19 AM 30.2 °F 18.5 °F 30.2 °F 100% 29.83 in 0.2 mi SSW 17.3 mph 25.3 mph 0.03 in Fog , Snow Snow
10:39 AM 30.2 °F 18.1 °F 30.2 °F 100% 29.83 in 0.2 mi SSW 18.4 mph 28.8 mph 0.06 in Fog , Snow Heavy Snow
10:57 AM 30.0 °F 19.5 °F 30.0 °F 100% 29.74 in 0.2 mi SSW 13.8 mph 24.2 mph 0.09 in Fog , Snow Snow
11:19 AM 30.2 °F 19.8 °F 30.2 °F 100% 29.83 in 0.2 mi SSW 13.8 mph 20.7 mph 0.03 in Fog , Snow Snow
11:57 AM 30.9 °F 19.1 °F 30.0 °F 96% 29.74 in 0.2 mi SSW 18.4 mph 24.2 mph 0.07 in Fog , Snow Snow
12:21 PM 30.2 °F 19.3 °F 30.2 °F 100% 29.85 in 0.2 mi SSW 15.0 mph - 0.03 in Fog , Snow Heavy Snow
12:57 PM 30.9 °F 19.8 °F 30.0 °F 96% 29.74 in 0.2 mi SSW 16.1 mph - 0.08 in Fog , Snow Heavy Snow
1:39 PM 30.2 °F 19.3 °F 30.2 °F 100% 29.85 in 0.2 mi SW 15.0 mph - 0.06 in Fog , Snow Heavy Snow
1:57 PM 30.0 °F 20.0 °F 28.9 °F 96% 29.76 in 0.2 mi West 12.7 mph 23.0 mph 0.09 in Fog , Snow Heavy Snow
2:12 PM 28.4 °F 18.0 °F 26.6 °F 93% 29.85 in 0.5 mi WSW 12.7 mph 20.7 mph 0.01 in Fog , Snow Snow
2:57 PM 28.0 °F 17.5 °F 25.0 °F 88% 29.78 in 0.2 mi WSW 12.7 mph 25.3 mph 0.03 in Fog , Snow Snow
3:10 PM 28.4 °F 21.2 °F 24.8 °F 86% 29.86 in 0.5 mi WSW 6.9 mph 20.7 mph 0.01 in Fog , Snow Snow
3:57 PM 27.0 °F 16.7 °F 25.0 °F 92% 29.81 in 0.2 mi WSW 11.5 mph 19.6 mph 0.03 in Fog , Snow Heavy Snow
4:08 PM 26.6 °F 19.1 °F 24.8 °F 93% 29.87 in 0.5 mi WSW 6.9 mph - 0.01 in Fog , Snow Snow
4:13 PM 26.6 °F 19.1 °F 24.8 °F 93% 29.87 in 0.2 mi WSW 6.9 mph - 0.02 in Fog , Snow Snow
4:45 PM 26.6 °F 20.0 °F 26.6 °F 100% 29.87 in 0.5 mi SSW 5.8 mph - 0.05 in Fog , Snow Snow
4:57 PM 27.0 °F 17.3 °F 25.0 °F 92% 29.80 in 0.8 mi SSW 10.4 mph - 0.06 in Snow Light Snow
5:10 PM 26.6 °F 18.2 °F 24.8 °F 93% 29.87 in 0.2 mi SSW 8.1 mph - 0.01 in Fog , Snow Heavy Snow
5:45 PM 26.6 °F 19.1 °F 26.6 °F 100% 29.85 in 0.5 mi SSW 6.9 mph - 0.05 in Fog , Snow Snow
5:57 PM 27.0 °F 19.5 °F 26.1 °F 96% 29.81 in 0.8 mi SSW 6.9 mph - 0.06 in Snow Light Snow
6:09 PM 26.6 °F 18.2 °F 26.6 °F 100% 29.86 in 1.0 mi SSW 8.1 mph - 0.00 in Snow Light Snow
6:21 PM 26.6 °F 17.5 °F 26.6 °F 100% 29.87 in 2.0 mi South 9.2 mph - 0.00 in Snow Light Snow
6:29 PM 26.6 °F 19.1 °F 26.6 °F 100% 29.87 in 1.2 mi SSW 6.9 mph - 0.01 in Snow Light Snow
6:42 PM 26.6 °F 21.2 °F 26.6 °F 100% 29.86 in 0.8 mi West 4.6 mph - 0.02 in Snow Light Snow
6:57 PM 27.0 °F 20.5 °F 26.1 °F 96% 29.81 in 3.0 mi SW 5.8 mph - 0.02 in Snow Light Snow
7:57 PM 28.0 °F 18.6 °F 26.1 °F 92% 29.84 in 7.0 mi WSW 10.4 mph - 0.00 in Snow Light Snow
8:15 PM 28.4 °F 19.7 °F 26.6 °F 93% 29.88 in 2.5 mi SSW 9.2 mph - 0.00 in Snow Light Snow
8:20 PM 28.4 °F 19.7 °F 26.6 °F 93% 29.88 in 0.8 mi SW 9.2 mph - 0.01 in Snow Light Snow
8:37 PM 28.4 °F 19.1 °F 26.6 °F 93% 29.89 in 1.8 mi SW 10.4 mph - 0.02 in Snow Light Snow
8:44 PM 28.4 °F 18.5 °F 26.6 °F 93% 29.88 in 2.0 mi SW 11.5 mph - 0.02 in Snow Light Snow
8:52 PM 28.4 °F 18.5 °F 26.6 °F 93% 29.88 in 1.0 mi SW 11.5 mph - 0.03 in Snow Light Snow
8:57 PM 28.0 °F 17.5 °F 27.0 °F 96% 29.85 in 0.5 mi SW 12.7 mph - 0.03 in Fog , Snow Snow
9:04 PM 28.4 °F 17.0 °F 26.6 °F 93% 29.88 in 0.5 mi SW 15.0 mph - 0.01 in Fog , Snow Snow
9:45 PM 28.4 °F 18.5 °F 26.6 °F 93% 29.87 in 1.2 mi WSW 11.5 mph - 0.04 in Snow Light Snow
9:50 PM 28.4 °F 16.2 °F 24.8 °F 86% 29.87 in 3.0 mi WSW 17.3 mph 24.2 mph 0.04 in Snow Light Snow
9:57 PM 28.0 °F 17.0 °F 25.0 °F 88% 29.85 in 9.0 mi WSW 13.8 mph 23.0 mph 0.04 in   Mostly Cloudy
10:57 PM 28.0 °F 17.0 °F 24.1 °F 85% 29.88 in 10.0 mi WSW 13.8 mph 21.9 mph N/A   Overcast
11:57 PM 28.0 °F 15.3 °F 23.0 °F 81% 29.89 in 10.0 mi WSW 18.4 mph 24.2 mph N/A   Overcast